QPF
0.00 0.00 0.00 0.00 0.00 0.00 0.00 0.00 0.00 0.00 0.00 0.00 0.00 0.00 0.00 0.00 0.00 0.00 0.00 0.00 0.00 0.00 0.00 0.00 0.00 0.00 0.00 0.00 0.00 0.00 0.00 0.00 0.00 0.00 0.00 0.00 0.00 0.00 0.00 0.00 0.00 0.00 0.00 0.00
0.00 0.00 0.00 0.00 0.00 0.00 0.00 0.00 0.00 0.00 0.00 0.00 0.00 0.00 0.00 0.00 0.00 0.00 0.00 0.00 0.00 0.00 0.00 0.00 0.00 0.00 0.00 0.00 0.00 0.00 0.00 0.00 0.00 0.00 0.00 0.00 0.00 0.00 0.00 0.00 0.00 0.00 0.00 0.00
0.00 0.00 0.00 0.00 0.00 0.00 0.00 0.00 0.00 0.00 0.00 0.00 0.00 0.00 0.00 0.00 0.00 0.00 0.00 0.00 0.00 0.00 0.00 0.00 0.00 0.00 0.00 0.00 0.00 0.00 0.00 0.00 0.00 0.00 0.00 0.00 0.00 0.00 0.00 0.00 0.00 0.00 0.00 0.00
0.00 0.00 0.00 0.00 0.00 0.00 0.00 0.00 0.00 0.00 0.00 0.00 0.00 0.00 0.00 0.00 0.00 0.00 0.00 0.00 0.00 0.00 0.00 0.00 0.00 0.00 0.00 0.00 0.00 0.00 0.00 0.00 0.00 0.00 0.00 0.00 0.00 0.00 0.00 0.00 0.00 0.00 0.00 0.00
0.00 0.00 0.00 0.00 0.00 0.00 0.00 0.00 0.00 0.00 0.00 0.00 0.00 0.00 0.00 0.00 0.00 0.00 0.00 0.00 0.00 0.00 0.00 0.00 0.00 0.00 0.00 0.00 0.00 0.00 0.00 0.00 0.00 0.00 0.00 0.00 0.00 0.00 0.00 0.00 0.00 0.00 0.00 0.00
0.00 0.00 0.00 0.00 0.00 0.00 0.00 0.00 0.00 0.00 0.00 0.00 0.00 0.00 0.00 0.00 0.00 0.00 0.00 0.00 0.00 0.00 0.00 0.00 0.00 0.00 0.00 0.00 0.00 0.00 0.00 0.00 0.00 0.00 0.00 0.00 0.00 0.00 0.00 0.00 0.00 0.00 0.00 0.00
0.00 0.00 0.00 0.00 0.00 0.00 0.00 0.00 0.00 0.00 0.00 0.00 0.00 0.00 0.00 0.00 0.00 0.00 0.00 0.00 0.00 0.00 0.00 0.00 0.00 0.00 0.00 0.00 0.00 0.00 0.00 0.00 0.00 0.00 0.00 0.00 0.00 0.00 0.00 0.00 0.00 0.00 0.00 0.00
0.00 0.00 0.00 0.00 0.00 0.00 0.00 0.00 0.01 0.02 0.01 0.00 0.00 0.00 0.00 0.00 0.00 0.00 0.00 0.00 0.00 0.00 0.00 0.00 0.00 0.00 0.00 0.00 0.00 0.00 0.00 0.00 0.00 0.00 0.00 0.00 0.00 0.00 0.00 0.00 0.00 0.00 0.00 0.00
0.01 0.00 0.00 0.00 0.00 0.00 0.00 0.00 0.00 0.02 0.03 0.01 0.00 0.00 0.00 0.00 0.00 0.00 0.00 0.00 0.00 0.00 0.00 0.00 0.00 0.00 0.00 0.00 0.00 0.00 0.00 0.00 0.00 0.00 0.00 0.00 0.00 0.00 0.00 0.00 0.00 0.00 0.00 0.00
0.01 0.02 0.00 0.00 0.00 0.00 0.00 0.00 0.00 0.02 0.05 0.04 0.01 0.00 0.00 0.00 0.00 0.00 0.00 0.00 0.00 0.00 0.00 0.00 0.00 0.00 0.00 0.00 0.00 0.00 0.00 0.00 0.00 0.00 0.00 0.00 0.00 0.00 0.00 0.00 0.00 0.00 0.00 0.00
0.03 0.07 0.04 0.00 0.00 0.00 0.00 0.00 0.01 0.04 0.08 0.09 0.05 0.01 0.00 0.00 0.00 0.00 0.00 0.00 0.00 0.00 0.00 0.00 0.00 0.00 0.00 0.00 0.00 0.00 0.00 0.00 0.00 0.00 0.00 0.00 0.00 0.00 0.00 0.00 0.00 0.00 0.00 0.00
0.03 0.09 0.09 0.02 0.00 0.00 0.00 0.00 0.01 0.06 0.09 0.09 0.11 0.06 0.00 0.00 0.00 0.00 0.00 0.00 0.00 0.00 0.00 0.00 0.00 0.00 0.00 0.00 0.00 0.00 0.00 0.00 0.00 0.00 0.00 0.00 0.00 0.00 0.00 0.00 0.00 0.00 0.00 0.00
0.08 0.16 0.24 0.11 0.03 0.02 0.03 0.04 0.06 0.14 0.25 0.24 0.23 0.12 0.01 0.00 0.00 0.00 0.00 0.00 0.00 0.00 0.00 0.00 0.00 0.00 0.00 0.00 0.00 0.00 0.00 0.00 0.00 0.00 0.00 0.00 0.00 0.00 0.00 0.00 0.00 0.00 0.00 0.00
0.12 0.20 0.27 0.21 0.08 0.08 0.11 0.10 0.10 0.19 0.27 0.20 0.12 0.06 0.02 0.01 0.00 0.00 0.00 0.00 0.00 0.00 0.00 0.00 0.00 0.00 0.00 0.00 0.00 0.00 0.00 0.00 0.00 0.00 0.00 0.00 0.00 0.00 0.00 0.00 0.00 0.00 0.00 0.00
0.05 0.10 0.06 0.04 0.02 0.03 0.05 0.04 0.02 0.03 0.05 0.08 0.04 0.01 0.00 0.00 0.00 0.00 0.00 0.00 0.00 0.00 0.00 0.00 0.00 0.00 0.00 0.00 0.00 0.00 0.00 0.00 0.00 0.00 0.00 0.00 0.00 0.00 0.00 0.00 0.00 0.00 0.00 0.00
0.02 0.06 0.04 0.02 0.00 0.00 0.01 0.01 0.00 0.00 0.00 0.00 0.00 0.00 0.00 0.00 0.00 0.00 0.00 0.00 0.00 0.00 0.00 0.00 0.00 0.00 0.00 0.00 0.00 0.00 0.00 0.00 0.00 0.00 0.00 0.00 0.00 0.00 0.00 0.00 0.00 0.00 0.00 0.00
0.04 0.05 0.07 0.04 0.00 0.01 0.01 0.00 0.00 0.00 0.00 0.00 0.00 0.00 0.00 0.00 0.00 0.00 0.00 0.00 0.00 0.00 0.00 0.00 0.00 0.00 0.00 0.00 0.00 0.00 0.00 0.00 0.00 0.00 0.00 0.00 0.00 0.00 0.00 0.00 0.00 0.00 0.00 0.00
0.01 0.02 0.05 0.04 0.01 0.01 0.00 0.00 0.00 0.00 0.00 0.00 0.00 0.00 0.00 0.00 0.00 0.00 0.00 0.00 0.00 0.00 0.00 0.00 0.00 0.00 0.00 0.00 0.00 0.00 0.00 0.00 0.00 0.00 0.00 0.00 0.00 0.00 0.00 0.00 0.00 0.00 0.00 0.00
0.00 0.01 0.03 0.03 0.02 0.01 0.00 0.00 0.00 0.00 0.00 0.00 0.00 0.00 0.00 0.00 0.00 0.00 0.00 0.00 0.00 0.00 0.00 0.00 0.00 0.00 0.00 0.00 0.00 0.00 0.00 0.00 0.00 0.00 0.00 0.00 0.00 0.00 0.00 0.00 0.00 0.00 0.00 0.00
0.00 0.01 0.04 0.03 0.02 0.01 0.00 0.00 0.00 0.00 0.00 0.00 0.00 0.00 0.00 0.00 0.00 0.00 0.00 0.00 0.00 0.00 0.00 0.00 0.00 0.00 0.00 0.00 0.00 0.00 0.00 0.00 0.00 0.00 0.00 0.00 0.00 0.00 0.00 0.00 0.00 0.00 0.00 0.00
0.00 0.01 0.03 0.02 0.02 0.01 0.00 0.00 0.00 0.00 0.00 0.00 0.00 0.00 0.00 0.00 0.00 0.00 0.00 0.00 0.00 0.00 0.00 0.00 0.00 0.00 0.00 0.00 0.00 0.00 0.00 0.00 0.00 0.00 0.00 0.00 0.00 0.00 0.00 0.00 0.00 0.00 0.00 0.00
0.00 0.00 0.00 0.00 0.01 0.01 0.00 0.00 0.00 0.00 0.00 0.00 0.00 0.00 0.00 0.00 0.00 0.00 0.00 0.00 0.00 0.00 0.00 0.00 0.00 0.00 0.00 0.00 0.00 0.00 0.00 0.00 0.00 0.00 0.00 0.00 0.00 0.00 0.00 0.00 0.00 0.00 0.00 0.00
0.00 0.00 0.00 0.00 0.00 0.00 0.00 0.00 0.00 0.00 0.00 0.00 0.00 0.00 0.00 0.00 0.00 0.00 0.00 0.00 0.00 0.00 0.00 0.00 0.00 0.00 0.00 0.00 0.00 0.00 0.00 0.00 0.00 0.00 0.00 0.00 0.00 0.00 0.00 0.00 0.00 0.00 0.00 0.01
0.00 0.00 0.00 0.00 0.00 0.00 0.00 0.00 0.00 0.00 0.00 0.00 0.00 0.00 0.00 0.00 0.00 0.00 0.00 0.00 0.00 0.00 0.00 0.00 0.00 0.00 0.00 0.00 0.00 0.00 0.00 0.00 0.00 0.00 0.00 0.00 0.00 0.00 0.00 0.00 0.00 0.00 0.00 0.01
0.00 0.00 0.00 0.00 0.00 0.00 0.00 0.00 0.00 0.00 0.00 0.00 0.00 0.00 0.00 0.00 0.00 0.00 0.00 0.00 0.00 0.00 0.00 0.00 0.00 0.00 0.00 0.00 0.00 0.00 0.00 0.00 0.00 0.00 0.00 0.00 0.00 0.00 0.00 0.00 0.00 0.00 0.00 0.01
0.00 0.00 0.00 0.00 0.00 0.00 0.00 0.00 0.00 0.00 0.00 0.00 0.00 0.00 0.00 0.00 0.00 0.00 0.00 0.00 0.00 0.00 0.00 0.00 0.00 0.00 0.00 0.00 0.00 0.00 0.00 0.00 0.00 0.00 0.00 0.00 0.00 0.00 0.00 0.00 0.00 0.00 0.01 0.01
MSLP
1018.54 1018.43 1018.24 1018.03 1017.84 1017.69 1017.60 1017.54 1017.45 1017.27 1016.95 1016.45 1015.74 1014.86 1013.86 1012.83 1011.85 1011.00 1010.34 1009.88 1009.61 1009.48 1009.43 1009.41 1009.37 1009.28 1009.14 1008.98 1008.83 1008.74 1008.75 1008.87 1009.12 1009.48 1009.94 1010.46 1011.02 1011.58 1012.15 1012.71 1013.26 1013.82 1014.37 1014.94
1018.48 1018.27 1018.01 1017.76 1017.57 1017.46 1017.41 1017.39 1017.34 1017.17 1016.82 1016.25 1015.48 1014.53 1013.48 1012.43 1011.48 1010.71 1010.16 1009.84 1009.72 1009.73 1009.80 1009.86 1009.85 1009.74 1009.55 1009.31 1009.06 1008.87 1008.78 1008.83 1009.02 1009.34 1009.77 1010.28 1010.83 1011.39 1011.95 1012.50 1013.03 1013.55 1014.08 1014.60
1018.32 1018.03 1017.73 1017.48 1017.32 1017.25 1017.26 1017.27 1017.22 1017.03 1016.63 1016.00 1015.16 1014.16 1013.09 1012.06 1011.19 1010.54 1010.16 1010.02 1010.08 1010.26 1010.47 1010.62 1010.65 1010.55 1010.32 1010.01 1009.68 1009.39 1009.22 1009.18 1009.29 1009.55 1009.92 1010.38 1010.88 1011.39 1011.91 1012.41 1012.91 1013.39 1013.87 1014.36
1018.07 1017.75 1017.46 1017.24 1017.12 1017.11 1017.15 1017.19 1017.13 1016.89 1016.43 1015.73 1014.82 1013.79 1012.73 1011.78 1011.02 1010.54 1010.34 1010.41 1010.67 1011.03 1011.37 1011.61 1011.70 1011.60 1011.35 1011.00 1010.60 1010.25 1009.99 1009.86 1009.89 1010.06 1010.34 1010.70 1011.11 1011.54 1011.97 1012.40 1012.83 1013.27 1013.70 1014.14
1017.79 1017.48 1017.22 1017.06 1017.01 1017.05 1017.13 1017.16 1017.07 1016.77 1016.23 1015.46 1014.50 1013.46 1012.45 1011.60 1011.00 1010.70 1010.71 1010.99 1011.44 1011.95 1012.42 1012.74 1012.87 1012.79 1012.53 1012.14 1011.70 1011.29 1010.97 1010.77 1010.70 1010.77 1010.93 1011.17 1011.44 1011.75 1012.06 1012.39 1012.74 1013.11 1013.50 1013.90
1017.51 1017.25 1017.06 1016.97 1016.99 1017.07 1017.16 1017.17 1017.02 1016.65 1016.03 1015.20 1014.23 1013.22 1012.29 1011.57 1011.14 1011.04 1011.26 1011.72 1012.33 1012.97 1013.53 1013.91 1014.06 1013.98 1013.71 1013.31 1012.85 1012.40 1012.03 1011.76 1011.61 1011.56 1011.59 1011.68 1011.81 1011.96 1012.13 1012.34 1012.58 1012.87 1013.21 1013.58
1017.27 1017.08 1016.97 1016.96 1017.03 1017.14 1017.21 1017.18 1016.95 1016.51 1015.83 1014.97 1014.01 1013.06 1012.26 1011.70 1011.46 1011.55 1011.95 1012.57 1013.30 1014.02 1014.62 1015.01 1015.16 1015.07 1014.79 1014.38 1013.90 1013.45 1013.05 1012.73 1012.51 1012.36 1012.26 1012.20 1012.15 1012.14 1012.15 1012.22 1012.35 1012.56 1012.83 1013.17
1017.09 1016.98 1016.95 1016.99 1017.09 1017.18 1017.22 1017.12 1016.82 1016.30 1015.59 1014.73 1013.83 1013.00 1012.34 1011.98 1011.93 1012.22 1012.77 1013.50 1014.30 1015.05 1015.64 1016.00 1016.11 1015.99 1015.69 1015.27 1014.81 1014.35 1013.95 1013.62 1013.34 1013.11 1012.89 1012.69 1012.48 1012.30 1012.15 1012.07 1012.08 1012.19 1012.39 1012.67
1016.98 1016.93 1016.93 1017.00 1017.09 1017.14 1017.11 1016.92 1016.55 1015.98 1015.26 1014.46 1013.66 1012.99 1012.53 1012.37 1012.53 1012.99 1013.67 1014.47 1015.29 1016.01 1016.54 1016.83 1016.88 1016.71 1016.38 1015.97 1015.52 1015.10 1014.72 1014.39 1014.09 1013.80 1013.49 1013.17 1012.82 1012.49 1012.19 1011.96 1011.84 1011.83 1011.94 1012.16
1016.90 1016.88 1016.90 1016.93 1016.97 1016.95 1016.82 1016.55 1016.11 1015.52 1014.84 1014.13 1013.49 1013.01 1012.78 1012.85 1013.21 1013.81 1014.59 1015.43 1016.22 1016.87 1017.31 1017.50 1017.46 1017.24 1016.89 1016.49 1016.08 1015.70 1015.37 1015.07 1014.77 1014.46 1014.09 1013.68 1013.22 1012.75 1012.32 1011.95 1011.69 1011.57 1011.57 1011.70
1016.87 1016.83 1016.80 1016.77 1016.71 1016.58 1016.35 1015.99 1015.51 1014.94 1014.33 1013.76 1013.31 1013.06 1013.07 1013.36 1013.91 1014.64 1015.48 1016.32 1017.05 1017.60 1017.92 1018.00 1017.88 1017.60 1017.24 1016.85 1016.49 1016.18 1015.92 1015.67 1015.41 1015.10 1014.71 1014.25 1013.71 1013.14 1012.59 1012.10 1011.72 1011.46 1011.35 1011.36
1016.89 1016.78 1016.66 1016.52 1016.34 1016.09 1015.76 1015.34 1014.84 1014.31 1013.81 1013.40 1013.17 1013.15 1013.39 1013.89 1014.59 1015.42 1016.29 1017.09 1017.74 1018.17 1018.37 1018.35 1018.14 1017.82 1017.46 1017.11 1016.81 1016.58 1016.39 1016.22 1016.01 1015.73 1015.35 1014.86 1014.28 1013.64 1013.01 1012.42 1011.92 1011.54 1011.29 1011.17
1016.97 1016.76 1016.53 1016.26 1015.95 1015.58 1015.16 1014.70 1014.21 1013.75 1013.38 1013.15 1013.12 1013.32 1013.76 1014.42 1015.23 1016.10 1016.95 1017.69 1018.23 1018.55 1018.63 1018.51 1018.24 1017.90 1017.55 1017.25 1017.02 1016.88 1016.78 1016.68 1016.54 1016.30 1015.94 1015.46 1014.86 1014.20 1013.51 1012.85 1012.26 1011.77 1011.40 1011.15
1017.17 1016.84 1016.48 1016.08 1015.65 1015.19 1014.70 1014.22 1013.77 1013.39 1013.15 1013.08 1013.23 1013.60 1014.18 1014.93 1015.79 1016.65 1017.43 1018.07 1018.49 1018.69 1018.67 1018.47 1018.16 1017.82 1017.50 1017.26 1017.11 1017.05 1017.03 1017.00 1016.92 1016.73 1016.42 1015.96 1015.38 1014.71 1014.00 1013.30 1012.65 1012.08 1011.60 1011.22
1017.53 1017.07 1016.59 1016.08 1015.56 1015.03 1014.51 1014.04 1013.64 1013.35 1013.22 1013.28 1013.54 1014.02 1014.66 1015.43 1016.25 1017.03 1017.71 1018.21 1018.50 1018.58 1018.46 1018.21 1017.89 1017.56 1017.29 1017.11 1017.04 1017.04 1017.09 1017.13 1017.10 1016.96 1016.68 1016.26 1015.71 1015.07 1014.37 1013.66 1012.98 1012.36 1011.80 1011.32
1018.05 1017.50 1016.92 1016.33 1015.74 1015.18 1014.66 1014.22 1013.87 1013.66 1013.61 1013.75 1014.07 1014.56 1015.19 1015.89 1016.60 1017.24 1017.76 1018.10 1018.25 1018.21 1018.02 1017.73 1017.42 1017.13 1016.91 1016.79 1016.78 1016.84 1016.94 1017.02 1017.02 1016.92 1016.68 1016.30 1015.80 1015.20 1014.54 1013.85 1013.17 1012.52 1011.91 1011.35
1018.74 1018.11 1017.46 1016.83 1016.21 1015.65 1015.15 1014.73 1014.44 1014.29 1014.28 1014.44 1014.75 1015.19 1015.71 1016.28 1016.81 1017.27 1017.59 1017.76 1017.77 1017.63 1017.39 1017.09 1016.79 1016.55 1016.39 1016.33 1016.37 1016.46 1016.59 1016.68 1016.71 1016.62 1016.41 1016.08 1015.62 1015.08 1014.47 1013.82 1013.17 1012.51 1011.87 1011.24
1019.51 1018.84 1018.16 1017.50 1016.88 1016.33 1015.86 1015.49 1015.23 1015.10 1015.10 1015.23 1015.47 1015.79 1016.17 1016.54 1016.87 1017.12 1017.25 1017.26 1017.14 1016.92 1016.65 1016.36 1016.10 1015.91 1015.80 1015.80 1015.86 1015.98 1016.11 1016.20 1016.21 1016.13 1015.94 1015.63 1015.22 1014.73 1014.18 1013.58 1012.95 1012.30 1011.64 1010.96
1020.25 1019.55 1018.86 1018.20 1017.59 1017.06 1016.61 1016.27 1016.03 1015.90 1015.88 1015.95 1016.09 1016.27 1016.48 1016.66 1016.78 1016.84 1016.80 1016.67 1016.46 1016.20 1015.92 1015.67 1015.46 1015.33 1015.29 1015.31 1015.40 1015.51 1015.62 1015.68 1015.67 1015.57 1015.37 1015.08 1014.70 1014.25 1013.74 1013.18 1012.58 1011.93 1011.24 1010.51
1020.79 1020.09 1019.40 1018.74 1018.14 1017.62 1017.20 1016.87 1016.64 1016.50 1016.43 1016.43 1016.48 1016.53 1016.59 1016.60 1016.57 1016.48 1016.32 1016.11 1015.86 1015.60 1015.36 1015.16 1015.02 1014.95 1014.96 1015.01 1015.10 1015.19 1015.26 1015.27 1015.21 1015.07 1014.85 1014.55 1014.18 1013.75 1013.26 1012.71 1012.11 1011.44 1010.71 1009.93
1020.99 1020.29 1019.60 1018.94 1018.35 1017.84 1017.43 1017.11 1016.88 1016.73 1016.64 1016.59 1016.57 1016.54 1016.49 1016.41 1016.29 1016.13 1015.92 1015.70 1015.47 1015.25 1015.08 1014.95 1014.89 1014.88 1014.92 1014.99 1015.06 1015.11 1015.12 1015.06 1014.93 1014.74 1014.47 1014.14 1013.75 1013.30 1012.80 1012.24 1011.60 1010.90 1010.11 1009.24
1020.73 1020.03 1019.34 1018.69 1018.10 1017.61 1017.21 1016.90 1016.69 1016.55 1016.46 1016.41 1016.37 1016.32 1016.26 1016.16 1016.03 1015.88 1015.70 1015.53 1015.37 1015.24 1015.15 1015.12 1015.12 1015.16 1015.22 1015.28 1015.31 1015.30 1015.23 1015.08 1014.87 1014.59 1014.26 1013.86 1013.42 1012.94 1012.39 1011.78 1011.09 1010.31 1009.44 1008.49
1019.95 1019.26 1018.58 1017.95 1017.38 1016.91 1016.54 1016.28 1016.10 1016.00 1015.96 1015.96 1015.97 1015.98 1015.98 1015.95 1015.90 1015.83 1015.75 1015.68 1015.63 1015.60 1015.61 1015.64 1015.70 1015.77 1015.82 1015.84 1015.81 1015.71 1015.54 1015.29 1014.97 1014.59 1014.16 1013.69 1013.17 1012.61 1011.99 1011.30 1010.53 1009.67 1008.71 1007.67
1018.69 1018.04 1017.39 1016.80 1016.28 1015.87 1015.56 1015.36 1015.27 1015.26 1015.32 1015.42 1015.54 1015.68 1015.80 1015.90 1015.98 1016.05 1016.11 1016.17 1016.23 1016.30 1016.38 1016.47 1016.54 1016.60 1016.61 1016.56 1016.43 1016.22 1015.93 1015.55 1015.11 1014.61 1014.07 1013.49 1012.87 1012.22 1011.51 1010.73 1009.87 1008.92 1007.87 1006.75
1017.09 1016.49 1015.93 1015.42 1014.99 1014.67 1014.47 1014.39 1014.41 1014.54 1014.74 1014.99 1015.28 1015.57 1015.86 1016.13 1016.38 1016.59 1016.78 1016.95 1017.11 1017.24 1017.36 1017.44 1017.49 1017.48 1017.41 1017.25 1017.00 1016.66 1016.22 1015.71 1015.13 1014.50 1013.83 1013.13 1012.40 1011.64 1010.84 1009.97 1009.02 1007.99 1006.87 1005.68
1015.34 1014.87 1014.43 1014.06 1013.78 1013.61 1013.55 1013.62 1013.81 1014.09 1014.46 1014.89 1015.35 1015.82 1016.28 1016.70 1017.09 1017.43 1017.72 1017.96 1018.15 1018.28 1018.37 1018.40 1018.35 1018.24 1018.03 1017.74 1017.34 1016.85 1016.26 1015.60 1014.88 1014.11 1013.32 1012.49 1011.66 1010.79 1009.88 1008.93 1007.91 1006.82 1005.66 1004.45
Thickness
5652 5651 5655 5665 5664 5666 5661 5653 5653 5662 5670 5654 5658 5664 5672 5685 5693 5700 5708 5712 5709 5706 5706 5706 5704 5704 5704 5705 5705 5705 5705 5703 5698 5693 5687 5683 5681 5677 5673 5671 5668 5663 5658 5652
5638 5641 5657 5659 5648 5640 5637 5635 5644 5655 5657 5640 5648 5654 5664 5676 5686 5696 5701 5701 5695 5694 5694 5692 5689 5688 5688 5688 5689 5691 5693 5692 5690 5686 5682 5677 5672 5668 5664 5659 5655 5652 5648 5644
5639 5647 5643 5635 5630 5627 5632 5630 5640 5639 5640 5635 5628 5645 5649 5667 5681 5687 5688 5684 5682 5679 5677 5674 5671 5669 5669 5670 5671 5675 5678 5679 5678 5675 5670 5665 5660 5657 5653 5648 5643 5637 5633 5630
5626 5631 5622 5621 5624 5622 5625 5634 5625 5618 5612 5623 5615 5627 5641 5653 5666 5674 5673 5670 5666 5660 5656 5652 5651 5650 5649 5650 5653 5658 5661 5663 5663 5661 5657 5653 5651 5648 5644 5637 5631 5625 5619 5615
5618 5611 5609 5611 5618 5614 5618 5612 5608 5605 5605 5608 5604 5606 5643 5635 5640 5652 5649 5644 5639 5635 5631 5627 5626 5626 5628 5631 5634 5639 5643 5644 5645 5644 5641 5638 5636 5634 5632 5628 5622 5616 5609 5604
5603 5598 5600 5606 5605 5601 5601 5597 5595 5590 5594 5604 5615 5604 5629 5630 5634 5633 5622 5613 5609 5606 5603 5601 5600 5603 5606 5610 5613 5618 5622 5623 5624 5625 5624 5622 5620 5618 5616 5614 5611 5606 5601 5595
5594 5591 5589 5587 5588 5585 5585 5585 5583 5586 5590 5606 5595 5593 5613 5625 5617 5606 5596 5587 5580 5577 5576 5576 5577 5579 5581 5583 5588 5592 5595 5598 5600 5602 5603 5603 5602 5601 5600 5599 5598 5595 5592 5588
5578 5588 5588 5580 5585 5587 5575 5577 5566 5561 5576 5596 5580 5584 5603 5601 5589 5579 5570 5561 5556 5553 5552 5551 5550 5552 5553 5555 5560 5564 5567 5570 5574 5577 5579 5581 5581 5582 5583 5583 5582 5581 5580 5577
5566 5574 5571 5565 5564 5566 5559 5560 5568 5550 5546 5551 5580 5597 5588 5579 5565 5555 5547 5541 5534 5531 5529 5529 5529 5528 5528 5530 5532 5535 5539 5542 5546 5549 5552 5556 5558 5560 5562 5563 5563 5563 5563 5561
5539 5541 5552 5546 5543 5546 5547 5549 5531 5529 5527 5536 5563 5584 5592 5568 5551 5537 5529 5521 5513 5509 5509 5508 5508 5506 5505 5506 5507 5510 5513 5515 5519 5523 5527 5529 5533 5535 5539 5541 5543 5545 5545 5544
5516 5508 5528 5530 5538 5544 5531 5525 5528 5527 5522 5523 5532 5562 5568 5548 5530 5517 5505 5497 5491 5489 5489 5488 5487 5486 5484 5484 5485 5487 5490 5492 5495 5499 5502 5506 5509 5511 5515 5518 5521 5524 5527 5526
5509 5498 5505 5525 5537 5529 5527 5529 5525 5513 5513 5513 5519 5535 5522 5511 5497 5487 5477 5471 5468 5467 5467 5467 5466 5465 5464 5463 5464 5465 5467 5468 5470 5473 5477 5482 5485 5488 5492 5495 5498 5502 5506 5508
5495 5480 5487 5504 5513 5499 5496 5498 5496 5494 5492 5498 5502 5507 5482 5474 5464 5458 5453 5448 5446 5445 5445 5445 5444 5443 5442 5441 5441 5442 5443 5443 5445 5448 5453 5458 5461 5464 5468 5471 5475 5479 5483 5488
5479 5469 5472 5480 5495 5484 5474 5475 5473 5467 5472 5479 5484 5485 5476 5475 5460 5442 5433 5429 5426 5425 5423 5422 5421 5420 5419 5417 5417 5417 5418 5418 5419 5422 5427 5431 5435 5438 5441 5445 5449 5454 5459 5465
5454 5452 5462 5468 5474 5471 5467 5466 5471 5469 5467 5457 5462 5466 5476 5462 5436 5422 5417 5412 5409 5407 5405 5403 5400 5399 5397 5395 5394 5393 5393 5393 5393 5396 5401 5405 5407 5410 5414 5418 5424 5430 5435 5440
5430 5427 5431 5431 5447 5446 5440 5449 5457 5458 5457 5453 5452 5458 5433 5407 5403 5401 5399 5396 5393 5392 5389 5385 5382 5379 5376 5373 5370 5368 5368 5368 5367 5369 5372 5375 5380 5384 5388 5393 5397 5404 5411 5417
5405 5402 5398 5405 5419 5406 5410 5433 5437 5440 5445 5442 5435 5414 5376 5376 5378 5379 5378 5377 5376 5375 5371 5368 5365 5362 5357 5353 5348 5345 5344 5341 5340 5341 5344 5347 5351 5355 5360 5365 5370 5377 5384 5391
5384 5380 5370 5373 5361 5365 5414 5406 5407 5408 5409 5395 5372 5352 5350 5350 5354 5357 5354 5352 5355 5354 5352 5349 5345 5342 5339 5333 5327 5323 5320 5316 5314 5314 5315 5317 5320 5324 5328 5334 5340 5347 5354 5363
5372 5362 5352 5348 5349 5362 5377 5371 5367 5367 5367 5350 5340 5332 5330 5329 5330 5340 5336 5331 5332 5332 5329 5326 5322 5318 5316 5311 5304 5299 5296 5293 5291 5289 5289 5289 5288 5289 5293 5299 5306 5313 5322 5334
5348 5340 5330 5331 5328 5332 5356 5340 5335 5334 5328 5318 5313 5311 5311 5306 5308 5326 5324 5315 5312 5310 5307 5303 5300 5296 5293 5289 5281 5274 5273 5271 5268 5265 5264 5262 5260 5258 5260 5265 5272 5279 5287 5301
5314 5311 5312 5317 5315 5323 5326 5312 5312 5309 5312 5301 5298 5298 5297 5293 5294 5302 5302 5296 5293 5291 5288 5282 5277 5273 5271 5265 5256 5251 5251 5249 5245 5241 5239 5237 5234 5232 5233 5236 5242 5247 5255 5269
5308 5304 5287 5283 5289 5304 5304 5296 5298 5302 5300 5296 5293 5291 5286 5284 5284 5284 5284 5282 5278 5274 5269 5262 5254 5251 5248 5239 5229 5225 5225 5221 5216 5213 5210 5209 5207 5206 5207 5209 5215 5220 5226 5238
5296 5303 5293 5278 5296 5305 5294 5293 5296 5294 5289 5290 5287 5284 5278 5273 5272 5272 5269 5265 5258 5250 5241 5232 5224 5221 5219 5210 5198 5193 5193 5186 5182 5180 5179 5178 5179 5180 5181 5183 5189 5195 5202 5212
5298 5294 5279 5272 5288 5295 5291 5290 5289 5285 5282 5281 5277 5273 5267 5263 5260 5255 5248 5239 5230 5220 5211 5203 5195 5191 5189 5182 5172 5163 5157 5151 5147 5148 5151 5151 5152 5157 5159 5160 5164 5170 5179 5189
5294 5277 5270 5269 5284 5284 5288 5286 5281 5277 5274 5269 5264 5255 5249 5242 5236 5228 5219 5210 5202 5195 5185 5175 5167 5162 5160 5153 5146 5136 5127 5121 5121 5123 5125 5126 5128 5131 5135 5139 5143 5148 5157 5162
5295 5279 5266 5268 5281 5275 5279 5281 5273 5267 5264 5254 5243 5232 5221 5213 5208 5201 5193 5186 5177 5169 5161 5152 5145 5138 5133 5127 5121 5114 5106 5101 5099 5102 5105 5106 5108 5111 5115 5120 5129 5135 5139 5148